DM4SB-4 Weather Reports


Display with metric or nautical units.
time (UTC)temp
F
wind
direction
speed
MPH
gust
MPH
rain 1hr
in
rain 24hr
in
rain mn
in
humidity
%
barometer
mb
20260506090034 58 245 0.0 0.0 0.00 0.00 0.00 78 1003.6
20260506085034 59 236 0.0 0.0 0.00 0.00 0.00 79 1003.8
20260506084034 58 176 0.0 0.0 0.00 0.00 0.00 82 1003.5
20260506083033 58 126 0.0 1.0 0.00 0.00 0.00 81 1003.5
20260506082033 56 285 0.0 0.0 0.00 0.00 0.00 86 1003.7
20260506081033 56 286 0.0 1.0 0.00 0.00 0.00 85 1003.9
20260506073034 56 286 0.0 0.0 0.00 0.00 0.00 84 1003.8
20260506072034 57 285 0.0 0.0 0.00 0.00 0.00 84 1003.9
20260506071033 57 289 0.0 0.0 0.00 0.00 0.00 82 1003.8
20260506062034 48 181 0.0 0.0 0.00 0.00 0.00 98 1003.7
20260506061033 47 179 0.0 0.0 0.00 0.00 0.00 99 1003.8
20260506051034 44 112 0.0 0.0 0.00 0.00 0.00 99 1003.9
20260506045034 43 112 0.0 0.0 0.00 0.00 0.00 99 1004.2
20260506044033 43 112 0.0 0.0 0.00 0.00 0.00 99 1004.2
20260506043033 43 112 0.0 0.0 0.00 0.00 0.00 99 1004.2
20260506042034 43 112 0.0 0.0 0.00 0.00 0.00 99 1004.1
20260506041033 43 113 0.0 0.0 0.00 0.00 0.00 99 1004.4
20260506040033 42 113 0.0 0.0 0.00 0.00 0.00 99 1004.3
20260506035033 42 113 0.0 0.0 0.00 0.00 0.00 99 1004.3
20260506034033 42 113 0.0 0.0 0.00 0.00 0.00 99 1004.1
20260506033033 42 113 0.0 0.0 0.00 0.00 0.00 99 1004.4
20260506032034 42 112 0.0 0.0 0.00 0.00 0.00 99 1004.4
20260506031033 42 112 0.0 0.0 0.00 0.00 0.00 98 1004.7
20260506030033 42 112 0.0 0.0 0.00 0.00 0.00 99 1004.5
20260506025033 41 112 0.0 0.0 0.00 0.00 0.00 98 1004.6
20260506024033 42 112 0.0 0.0 0.00 0.00 0.00 98 1004.6
20260506023033 43 112 0.0 0.0 0.00 0.00 0.00 98 1004.4
20260506022033 43 113 0.0 0.0 0.00 0.00 0.00 98 1004.4
20260506021034 42 113 0.0 0.0 0.00 0.00 0.00 98 1004.7
20260506020033 43 113 0.0 0.0 0.00 0.00 0.00 98 1004.6
20260506015034 44 112 0.0 1.0 0.00 0.00 0.00 98 1004.9
20260506014034 43 113 0.0 0.0 0.00 0.00 0.00 98 1005.0
20260506013034 42 113 0.0 0.0 0.00 0.00 0.00 98 1005.1
20260506012033 43 113 0.0 0.0 0.00 0.00 0.00 97 1004.9
20260506011033 44 113 0.0 0.0 0.00 0.00 0.00 97 1004.5
20260506010033 44 113 0.0 0.0 0.00 0.00 0.00 97 1004.5
20260506005033 43 112 0.0 0.0 0.00 0.00 0.00 97 1004.7
20260506004033 44 112 0.0 0.0 0.00 0.00 0.00 97 1004.6
20260506003033 45 112 0.0 0.0 0.00 0.00 0.00 97 1004.8
20260506002034 46 112 0.0 0.0 0.00 0.00 0.00 97 1004.9
20260506001034 46 113 0.0 0.0 0.00 0.00 0.00 96 1004.9
20260506000033 46 113 0.0 0.0 0.00 0.00 0.00 96 1005.1
20260505235033 48 113 0.0 0.0 0.00 0.00 0.00 96 1005.5
20260505234033 48 138 0.0 0.0 0.00 0.00 0.00 96 1005.5
20260505233033 48 139 0.0 0.0 0.00 0.00 0.00 96 1005.4
20260505232034 48 164 0.0 0.0 0.00 0.00 0.00 96 1005.6
20260505231034 48 141 0.0 0.0 0.00 0.00 0.00 96 1005.5
20260505230033 49 153 0.0 0.0 0.00 0.00 0.00 96 1005.7
20260505225033 48 140 0.0 0.0 0.00 0.00 0.00 96 1005.6
20260505224033 48 130 0.0 0.0 0.00 0.00 0.00 96 1005.7
20260505223033 47 110 0.0 0.0 0.00 0.00 0.00 96 1005.5
20260505222034 48 110 0.0 0.0 0.00 0.00 0.00 95 1005.7
20260505221034 48 110 0.0 0.0 0.00 0.00 0.00 95 1005.7
20260505220033 48 110 0.0 0.0 0.00 0.00 0.00 95 1005.5
20260505215033 48 112 0.0 0.0 0.00 0.00 0.07 95 1005.5
20260505214033 49 112 0.0 1.0 0.00 0.00 0.07 95 1005.4
20260505213033 50 129 0.0 0.0 0.00 0.00 0.07 95 1005.5
20260505212034 50 114 0.0 0.0 0.00 0.00 0.07 95 1005.5
20260505211033 50 113 0.0 0.0 0.00 0.00 0.07 95 1005.5
20260505210033 50 125 0.0 0.0 0.00 0.00 0.07 95 1005.6
20260505205033 50 108 0.0 0.0 0.00 0.00 0.07 95 1005.5
20260505204034 51 127 0.0 0.0 0.00 0.00 0.07 95 1005.5
20260505203034 50 127 0.0 0.0 0.00 0.00 0.07 95 1005.4
20260505202033 50 127 0.0 0.0 0.00 0.00 0.07 95 1005.4
20260505201033 51 127 0.0 0.0 0.00 0.00 0.07 94 1005.1
20260505200033 51 127 0.0 0.0 0.00 0.00 0.07 94 1005.0
20260505195033 52 126 0.0 0.0 0.00 0.00 0.07 94 1004.9
20260505194034 52 126 0.0 0.0 0.00 0.00 0.07 93 1005.0
20260505193034 52 126 0.0 0.0 0.00 0.00 0.07 93 1004.9
20260505192034 53 127 0.0 0.0 0.00 0.00 0.07 92 1004.8
20260505191033 53 104 0.0 0.0 0.00 0.00 0.07 91 1004.8
20260505190034 54 150 0.0 0.0 0.00 0.00 0.07 90 1004.7
20260505185033 54 261 0.0 0.0 0.00 0.00 0.07 89 1004.7
20260505184033 55 153 0.0 0.0 0.00 0.00 0.07 88 1004.6
20260505183033 55 159 0.0 1.0 0.00 0.00 0.07 87 1004.5
20260505180037 55 113 0.0 0.0 0.00 0.00 0.07 89 1004.4
20260505175034 55 112 0.0 0.0 0.00 0.00 0.07 88 1004.1
20260505174033 56 112 0.0 0.0 0.00 0.00 0.07 88 1004.1
20260505173033 57 112 0.0 0.0 0.00 0.00 0.07 88 1004.4
20260505172033 57 109 1.0 2.0 0.00 0.00 0.07 86 1004.3
20260505171033 58 119 0.0 0.0 0.00 0.00 0.07 86 1004.2
20260505170033 58 113 0.0 0.0 0.00 0.00 0.07 84 1004.3
20260505165034 58 117 0.0 0.0 0.00 0.00 0.07 86 1004.1
20260505164034 57 116 0.0 0.0 0.00 0.00 0.07 89 1004.4
20260505163033 57 147 0.0 2.0 0.00 0.00 0.07 86 1004.3
20260505162033 57 227 0.0 1.0 0.00 0.00 0.07 86 1004.2
20260505161033 56 151 0.0 2.0 0.00 0.00 0.07 86 1004.4
20260505153033 56 128 0.0 0.0 0.00 0.00 0.07 90 1004.7
20260505152033 55 145 0.0 2.0 0.00 0.00 0.07 89 1004.7
20260505151033 55 128 0.0 1.0 0.00 0.00 0.07 90 1004.6
20260505125033 67 105 0.0 0.0 0.00 0.00 0.00 62 1004.5
20260505124033 66 156 0.0 0.0 0.00 0.00 0.00 62 1004.5
20260505123034 66 119 0.0 2.0 0.00 0.00 0.00 60 1004.6
20260505122033 66 165 0.0 0.0 0.00 0.00 0.00 62 1004.4
20260505121033 67 109 0.0 0.0 0.00 0.00 0.00 62 1004.7
20260505120033 67 151 0.0 1.0 0.00 0.00 0.00 58 1004.5
20260505115033 68 107 0.0 1.0 0.00 0.00 0.00 55 1004.5
20260505114033 68 135 0.0 1.0 0.00 0.00 0.00 55 1004.4
20260505113033 68 143 0.0 0.0 0.00 0.00 0.00 55 1004.4
20260505112034 69 146 0.0 0.0 0.00 0.00 0.00 55 1004.3
20260505111034 69 149 0.0 0.0 0.00 0.00 0.00 54 1004.5
20260505102033 72 33 0.0 2.0 0.00 0.00 0.00 49 1005.0
20260505101034 73 193 0.0 1.0 0.00 0.00 0.00 49 1004.9
20260505100034 73 177 0.0 2.0 0.00 0.00 0.00 48 1005.1
20260505095033 70 218 0.0 1.0 0.00 0.00 0.00 49 1005.4
20260505094033 71 129 1.0 2.0 0.00 0.00 0.00 50 1005.3
20260505093033 71 204 0.0 0.0 0.00 0.00 0.00 52 1005.3
20260505092033 70 273 0.0 1.0 0.00 0.00 0.00 55 1005.4
20260505091033 71 357 0.0 0.0 0.00 0.00 0.00 58 1005.4